Location: Wingville
(42.9917°N, 90.4915°W)
Time: 14:26:17
(UTC+00:00)

CUBESAT XI-V - Pass Details

Date: 06 July 2022
Orbit: 668 x 690 km, 98.1° (Epoch: 18 August)

Event Time Altitude Azimuth Distance (km) Brightness Sun altitude
Exits shadow 09:14:02 11° 256° (WSW) 2,026 ? -11.5°
Maximum altitude 09:15:07 12° 271° (W) 1,974 ? -11.3°
Drops below altitude 10° 09:16:51 10° 293° (WNW) 2,103 ? -11.1°
Sets 09:20:36 0° 325° (NW) 3,021 ? -10.6°
